Wind_Speed
45 43 41 40 38 34 32 28 13 20 34 23 22 31 22 18 26 15 10 19 26 20 20 12 8 15 14 14 12 17 17 17 16 15 13 13 12 11 11 11 13 13 13 14 15 18 19 21 23
47 48 47 45 44 42 36 37 40 26 38 30 29 35 27 25 16 16 15 14 10 15 20 11 9 12 12 13 12 15 19 22 20 19 19 17 17 16 17 17 19 19 18 18 19 20 24 27 28
52 49 50 51 52 46 40 41 42 42 30 36 32 35 33 31 25 22 27 21 14 20 19 15 14 14 15 16 15 13 13 19 25 24 24 22 23 23 22 23 25 25 25 25 25 25 27 30 31
55 54 59 56 54 49 51 50 45 42 36 27 33 36 42 35 37 24 29 29 19 18 21 18 14 18 22 24 24 22 21 18 20 25 25 23 22 23 25 27 29 31 30 30 32 33 33 35 34
62 64 63 60 55 58 57 52 50 43 41 27 25 47 47 45 43 44 30 30 22 21 22 26 29 26 26 28 29 30 31 27 22 25 24 28 28 28 27 28 29 32 35 37 38 40 39 39 39
67 67 71 68 60 61 62 54 53 52 41 29 28 38 53 47 47 48 45 34 30 28 28 34 38 34 30 31 32 33 34 33 30 30 31 32 33 34 32 33 33 33 34 38 41 43 42 44 45
69 73 71 73 67 66 67 61 59 52 49 52 41 25 50 50 44 43 40 42 43 39 37 38 41 40 38 36 37 37 37 37 38 38 38 38 39 37 39 42 43 41 41 43 44 46 50 54 52
77 76 78 74 74 71 72 64 65 57 49 55 54 54 44 41 46 46 48 46 43 44 48 49 47 41 41 41 41 40 41 42 41 43 44 46 45 45 45 46 47 51 53 54 55 59 58 55 56
83 81 81 79 76 77 75 69 70 63 57 53 54 52 48 47 51 53 51 48 48 45 45 48 53 52 46 44 45 45 45 45 47 49 50 52 52 53 52 52 53 54 56 58 61 63 63 59 56
86 87 86 82 81 81 77 75 75 69 62 58 55 56 55 53 55 58 53 50 51 51 49 48 48 51 51 50 52 54 54 54 54 53 54 55 57 56 57 57 57 56 57 59 60 60 61 61 62
84 89 92 90 83 82 80 77 76 74 71 66 62 61 63 62 62 58 58 53 48 48 51 54 54 55 52 52 53 55 54 54 56 56 57 56 55 55 55 56 57 57 59 62 64 66 70 69 67
85 91 93 87 86 83 81 79 72 72 72 70 66 64 65 65 69 70 65 62 53 50 51 52 59 63 59 57 55 59 58 57 58 60 61 60 60 61 60 61 62 64 65 65 68 68 66 71 75
85 92 94 92 92 85 82 76 76 77 75 73 70 67 61 64 68 69 65 63 61 56 52 53 53 57 62 62 61 62 66 67 68 66 65 66 68 68 66 68 68 69 67 66 63 67 58 52 60
88 93 95 94 88 88 82 79 78 75 78 74 74 70 65 69 68 71 72 66 66 64 61 58 59 58 61 63 64 67 69 72 72 73 73 71 72 74 74 74 73 73 69 69 66 69 63 61 72
84 89 90 91 90 87 85 81 76 73 71 74 78 76 71 73 74 75 74 75 72 74 73 71 69 66 63 67 73 75 75 76 77 77 79 79 79 76 74 75 74 76 79 75 75 72 73 69 80
79 84 84 87 89 91 89 81 82 81 78 73 78 81 83 67 75 74 75 74 77 77 78 79 76 74 71 72 75 78 78 78 80 80 79 78 76 74 76 76 76 73 75 76 73 75 79 83 79
69 79 83 91 90 93 90 88 85 80 79 82 74 79 78 78 73 75 75 77 77 78 80 80 80 78 79 79 80 82 79 81 78 78 77 73 72 76 78 81 81 81 79 78 78 81 81 84 83
61 75 85 91 92 92 88 88 84 81 84 85 89 81 75 82 83 80 78 79 81 81 81 82 81 82 83 85 87 86 81 80 78 79 83 80 79 78 83 80 78 80 80 84 86 88 90 91 91
56 71 80 84 87 89 86 83 84 86 87 89 89 82 83 86 83 81 83 85 84 84 82 81 85 83 86 84 83 80 81 80 81 80 81 84 80 85 86 83 83 85 88 84 86 86 88 88 90
41 56 68 75 79 83 84 82 85 85 89 84 90 85 83 85 82 82 83 85 86 84 86 86 87 83 86 81 82 81 84 80 89 89 88 90 93 93 97 104 101 101 99 102 99 101 103 102 100
29 44 57 65 72 79 80 82 86 90 94 93 91 86 85 87 79 83 83 87 82 84 85 86 83 87 88 89 90 91 92 93 96 95 97 101 106 109 112 110 113 113 112 112 111 110 109 107 108
17 29 44 55 63 72 78 83 86 96 92 91 92 92 88 87 81 76 84 84 83 88 93 92 93 93 96 97 97 96 100 102 100 105 109 107 112 115 117 119 119 119 119 117 116 114 113 110 109
12 25 36 49 59 65 79 80 86 86 92 92 92 93 90 88 88 90 91 95 95 95 96 99 100 101 103 108 107 108 106 106 107 110 114 115 117 120 121 123 127 126 123 121 119 118 116 112 109
13 19 27 37 47 60 70 75 78 83 90 92 93 94 94 92 91 95 93 94 94 98 101 105 107 109 111 113 115 116 115 114 114 115 119 121 123 126 126 130 127 126 125 121 117 114 111 109 106
18 19 24 30 38 52 59 67 75 82 88 93 93 93 94 94 97 97 97 99 102 101 102 106 112 119 119 119 118 120 120 120 120 120 121 123 127 127 125 122 120 119 119 119 115 113 112 111 110
25 27 30 31 35 43 51 59 67 75 82 87 91 92 98 101 101 102 102 105 106 111 115 116 117 114 112 114 117 120 120 122 123 123 121 121 121 121 121 121 122 123 123 122 120 119 118 116 113
29 33 35 37 42 45 48 51 58 62 69 74 79 84 89 92 94 97 100 102 106 110 112 112 110 110 110 110 112 114 117 118 121 124 124 124 124 124 124 125 124 123 123 123 123 122 121 119 116
28 33 34 39 44 50 53 58 58 61 63 68 72 76 81 84 88 91 96 100 102 102 103 104 106 108 110 111 112 114 116 118 119 120 123 126 126 127 128 128 130 127 125 125 124 123 123 120 117
32 33 36 38 43 49 53 55 55 60 64 70 74 79 83 88 92 96 97 99 101 103 105 107 109 110 111 113 114 116 117 118 119 121 122 123 124 125 126 128 129 129 126 120 118 118 115 111 104
32 32 35 37 40 43 51 57 60 62 67 72 75 78 83 87 90 93 95 98 102 105 107 108 110 111 112 113 114 115 116 116 117 116 116 118 121 121 121 120 121 120 118 114 110 107 101 96 91
Wind_Direction
227 227 230 237 232 223 217 214 198 240 221 202 204 218 206 231 217 218 249 242 271 282 263 256 270 239 240 253 257 248 247 239 238 249 251 253 252 261 264 272 276 270 274 280 289 295 297 300 301
227 230 230 234 238 230 218 220 210 231 221 217 229 212 190 206 203 224 227 242 284 287 272 248 229 233 245 245 249 258 261 252 249 248 250 250 256 260 268 272 277 279 281 284 285 288 293 295 296
232 230 230 234 237 232 225 227 226 228 229 226 231 212 197 207 223 232 230 244 231 249 259 236 233 233 244 245 252 253 266 261 252 252 255 260 260 262 267 272 277 280 284 285 288 289 290 290 292
231 231 230 233 234 233 234 227 226 228 229 224 239 232 224 215 216 223 245 250 242 238 251 238 252 251 246 257 258 257 267 262 253 254 261 262 266 270 274 275 276 279 281 283 286 284 283 286 292
235 236 233 232 233 236 236 235 201 226 224 224 260 245 242 241 228 221 229 244 225 231 239 251 270 280 265 267 262 264 279 270 258 256 251 262 265 269 272 275 279 278 279 281 286 285 285 286 290
234 235 234 233 231 233 236 234 216 210 218 195 157 238 237 240 243 245 249 235 244 249 256 263 269 274 264 261 262 266 273 272 269 266 266 271 275 276 274 276 277 282 281 284 284 284 285 291 290
234 234 236 231 230 233 235 236 239 217 205 207 224 246 239 241 250 256 258 256 250 245 247 261 269 269 263 262 262 266 267 268 270 272 271 272 273 277 279 279 274 275 279 280 280 284 285 288 287
233 232 233 233 231 233 234 234 239 233 224 231 244 250 252 256 259 257 255 256 259 259 261 260 260 262 263 263 262 263 264 264 266 268 270 272 274 276 279 278 277 277 281 284 284 287 290 289 291
238 231 232 231 230 233 234 233 236 236 231 228 245 250 259 260 260 258 257 257 256 255 257 258 257 259 260 261 263 261 262 263 267 269 268 266 269 272 276 279 282 284 285 286 286 287 290 292 292
236 232 232 229 230 231 233 234 234 234 236 234 233 248 250 253 255 257 256 257 258 258 258 261 263 264 263 265 266 265 266 269 271 272 271 271 272 273 276 279 283 286 287 287 287 288 288 287 288
233 231 228 226 229 230 232 234 237 235 236 237 235 235 245 249 248 254 257 251 255 263 268 267 264 262 266 267 269 267 267 270 270 271 272 272 273 273 275 277 278 280 281 284 287 288 286 285 284
228 226 227 227 225 228 231 233 232 236 234 233 235 235 243 244 245 244 245 254 258 262 266 271 274 272 266 265 271 272 270 269 271 272 272 274 274 274 276 278 280 281 284 289 288 287 287 286 284
224 224 223 223 222 224 227 229 231 232 233 233 235 234 240 248 251 252 246 249 253 254 255 261 264 271 277 275 271 272 272 269 267 267 270 273 276 277 279 280 281 282 283 282 286 287 278 281 284
219 221 222 221 222 224 225 227 230 233 233 234 234 236 238 240 244 248 250 248 251 256 256 254 258 262 268 272 273 274 275 276 275 275 275 275 276 277 278 278 279 280 278 277 277 282 275 278 291
220 219 221 221 223 223 223 226 227 229 233 235 235 235 236 241 242 242 249 254 252 252 256 258 255 258 260 260 265 269 273 275 275 275 275 275 274 275 274 275 274 275 275 276 273 270 274 282 284
219 218 217 216 217 221 219 221 225 228 233 233 239 238 238 238 245 246 250 250 255 258 255 255 258 263 264 264 265 266 270 275 276 276 276 277 278 278 277 275 275 274 275 275 274 272 264 273 277
220 217 213 214 215 222 220 221 224 226 229 236 235 238 242 243 246 250 250 253 255 256 259 262 265 265 266 268 270 272 274 276 276 275 277 277 274 276 275 274 273 273 273 275 274 276 276 274 277
218 216 216 218 217 219 222 223 227 226 227 231 235 237 237 242 245 249 255 255 257 260 263 265 265 268 269 271 273 275 275 272 274 277 278 277 277 279 280 276 275 274 275 276 276 276 276 277 277
220 219 220 219 219 223 225 227 227 227 231 235 239 238 239 242 248 251 252 256 258 259 259 262 265 272 274 275 277 278 278 280 279 282 281 282 282 279 275 277 278 283 279 282 282 281 281 278 279
228 224 224 225 224 223 224 224 229 231 231 232 239 241 243 245 248 250 252 255 257 259 260 262 265 263 265 263 268 270 273 272 274 277 276 276 276 277 277 281 281 281 279 283 281 280 281 281 280
233 229 230 226 223 225 224 223 227 234 236 238 242 243 245 248 251 254 255 258 263 262 261 262 263 263 264 265 266 266 265 269 272 271 270 271 273 275 277 279 279 280 281 282 283 283 283 283 282
229 238 237 230 227 227 228 225 227 231 239 242 243 244 244 248 248 250 257 255 255 261 266 267 269 269 265 266 264 265 261 265 269 268 272 271 272 273 274 275 278 279 280 281 282 283 282 282 282
265 250 237 232 229 227 228 229 232 236 239 241 245 247 249 250 249 250 253 260 261 263 265 267 269 269 267 266 269 270 271 272 271 267 271 271 271 273 275 278 280 281 282 283 283 283 283 283 282
257 246 239 236 234 233 234 232 233 237 242 242 245 248 250 252 251 255 257 261 264 266 265 269 268 266 266 266 270 273 274 274 273 272 270 270 271 273 275 277 280 282 282 282 282 282 282 282 282
253 255 253 246 242 241 238 239 238 237 241 246 249 250 252 254 255 257 258 257 258 261 264 267 271 272 273 274 275 276 277 277 276 276 275 274 275 276 277 280 281 281 281 281 281 281 280 280 279
256 250 250 251 252 249 247 246 245 246 247 248 250 252 253 254 257 258 259 259 258 257 257 260 264 267 271 275 277 278 278 278 278 279 278 278 278 279 279 279 279 279 279 279 279 278 278 277 277
259 258 257 254 252 253 254 253 252 254 255 256 257 257 258 260 261 260 260 260 260 260 261 264 265 266 266 265 266 269 273 277 279 280 280 279 278 277 277 276 276 276 276 277 277 277 277 276 276
260 259 259 261 261 260 260 259 262 261 262 263 264 264 263 263 263 262 261 261 262 264 265 265 265 265 266 267 269 270 270 270 271 274 278 279 278 279 279 278 278 278 277 277 277 275 274 274 274
263 261 261 262 267 271 267 265 266 267 270 270 270 268 266 266 265 266 267 268 268 268 267 268 268 269 270 270 271 271 272 273 273 273 273 274 277 279 280 280 280 280 279 278 278 277 277 277 276
265 263 263 265 267 273 280 284 277 272 268 266 266 266 269 271 272 272 272 271 271 271 271 271 271 272 272 272 272 272 273 273 274 275 275 276 276 276 277 278 279 280 281 281 281 281 280 280 278
Height
10964 10966 10968 10970 10971 10973 10975 10980 10987 10984 10983 10983 10983 10986 10988 10987 10988 10991 10992 10994 10994 10993 10994 10994 10994 10995 10996 10998 11000 11001 11001 11002 11002 11003 11003 11002 11003 11002 11002 11002 11002 11001 11000 10999 10999 10998 10998 10997 10995
10957 10959 10962 10964 10965 10965 10970 10971 10975 10966 10970 10979 10980 10982 10985 10984 10985 10987 10991 10991 10990 10990 10991 10992 10992 10994 10995 10996 10997 10998 10999 10999 10999 10999 10999 10999 10999 10999 10998 10999 10999 10998 10997 10996 10995 10995 10994 10993 10991
10949 10951 10954 10955 10956 10961 10961 10961 10962 10968 10976 10980 10979 10983 10983 10984 10983 10985 10987 10987 10988 10988 10988 10989 10990 10992 10993 10994 10994 10995 10995 10994 10994 10995 10995 10995 10996 10996 10995 10995 10995 10994 10994 10993 10992 10991 10990 10988 10987
10940 10943 10943 10945 10951 10957 10949 10945 10957 10971 10977 10982 10985 10981 10978 10979 10982 10983 10982 10983 10984 10984 10985 10986 10987 10989 10988 10989 10990 10991 10990 10990 10989 10991 10991 10991 10992 10992 10991 10991 10991 10990 10989 10988 10987 10986 10985 10984 10982
10931 10933 10933 10938 10948 10946 10945 10945 10965 10966 10971 10987 10988 10977 10971 10969 10973 10977 10978 10978 10980 10982 10983 10984 10984 10985 10985 10985 10985 10985 10986 10986 10986 10986 10986 10986 10987 10987 10987 10986 10986 10985 10984 10983 10982 10980 10979 10978 10977
10919 10918 10921 10930 10937 10938 10936 10943 10948 10954 10968 10978 10947 10948 10954 10963 10966 10971 10972 10975 10976 10978 10980 10980 10980 10981 10981 10981 10981 10981 10981 10981 10980 10981 10982 10981 10982 10982 10982 10981 10980 10979 10977 10976 10975 10973 10972 10971 10970
10906 10908 10914 10919 10924 10928 10930 10938 10943 10948 10960 10964 10951 10949 10950 10959 10961 10968 10972 10971 10973 10975 10976 10975 10974 10974 10975 10975 10975 10975 10974 10974 10974 10975 10976 10975 10975 10975 10974 10973 10972 10970 10968 10967 10965 10964 10963 10962 10961
10891 10895 10897 10906 10914 10918 10921 10931 10933 10941 10952 10950 10955 10957 10959 10959 10961 10963 10964 10966 10969 10970 10970 10969 10968 10967 10968 10968 10968 10967 10967 10967 10968 10968 10968 10967 10967 10965 10964 10963 10963 10962 10961 10960 10958 10955 10954 10952 10950
10876 10881 10881 10895 10904 10907 10911 10920 10922 10931 10939 10941 10946 10951 10957 10957 10955 10951 10953 10960 10963 10963 10962 10962 10961 10961 10963 10961 10960 10960 10959 10961 10961 10960 10960 10958 10957 10956 10956 10955 10954 10954 10952 10950 10948 10946 10945 10942 10941
10857 10865 10867 10879 10886 10891 10896 10904 10910 10921 10928 10935 10943 10947 10944 10942 10943 10939 10943 10949 10951 10954 10955 10954 10954 10953 10954 10953 10951 10951 10952 10952 10951 10951 10951 10950 10949 10948 10948 10947 10946 10944 10942 10940 10937 10936 10934 10931 10930
10835 10848 10840 10853 10873 10880 10881 10892 10899 10910 10919 10924 10929 10934 10934 10935 10933 10930 10931 10938 10943 10944 10943 10943 10945 10945 10943 10944 10942 10939 10942 10942 10941 10941 10940 10941 10940 10940 10938 10937 10936 10934 10931 10927 10926 10925 10922 10921 10919
10810 10818 10826 10853 10854 10864 10874 10880 10889 10894 10903 10911 10918 10922 10919 10918 10915 10917 10928 10932 10940 10941 10940 10934 10926 10927 10935 10937 10933 10927 10931 10932 10930 10931 10931 10931 10930 10927 10927 10925 10922 10921 10919 10917 10914 10911 10906 10907 10906
10790 10796 10815 10825 10834 10849 10860 10872 10874 10879 10886 10898 10904 10908 10912 10909 10905 10908 10922 10928 10930 10933 10934 10929 10923 10917 10915 10919 10919 10918 10917 10920 10921 10922 10922 10921 10917 10915 10916 10913 10912 10911 10911 10907 10902 10898 10895 10894 10893
10765 10777 10799 10808 10834 10839 10850 10859 10861 10870 10869 10883 10889 10895 10896 10893 10891 10896 10903 10914 10916 10917 10918 10921 10917 10917 10910 10907 10906 10901 10901 10903 10905 10905 10906 10908 10906 10903 10902 10900 10898 10897 10896 10893 10886 10886 10885 10880 10878
10758 10769 10789 10810 10819 10830 10833 10844 10854 10852 10867 10868 10872 10878 10878 10878 10881 10889 10890 10895 10901 10900 10901 10901 10901 10901 10904 10904 10896 10893 10894 10894 10895 10893 10891 10890 10890 10891 10888 10884 10882 10882 10878 10877 10875 10874 10871 10870 10866
10746 10762 10784 10788 10797 10805 10815 10836 10836 10845 10853 10857 10858 10861 10863 10868 10872 10880 10882 10881 10879 10884 10886 10887 10892 10891 10888 10887 10887 10885 10885 10883 10880 10876 10876 10874 10872 10871 10867 10864 10863 10864 10861 10861 10861 10858 10855 10853 10854
10740 10756 10765 10767 10781 10785 10813 10821 10825 10836 10841 10842 10842 10844 10858 10859 10862 10864 10867 10866 10867 10869 10869 10872 10873 10873 10872 10871 10869 10870 10874 10870 10864 10858 10856 10857 10858 10853 10847 10843 10845 10846 10846 10843 10841 10839 10838 10839 10840
10732 10741 10745 10757 10769 10774 10806 10813 10822 10824 10825 10824 10824 10836 10845 10846 10847 10851 10856 10855 10853 10852 10856 10858 10857 10860 10858 10852 10851 10850 10855 10853 10849 10842 10837 10837 10837 10831 10825 10823 10826 10828 10827 10824 10823 10821 10821 10819 10818
10725 10732 10742 10753 10770 10784 10800 10808 10813 10812 10814 10812 10808 10829 10833 10834 10839 10842 10840 10839 10839 10840 10841 10843 10844 10844 10840 10838 10837 10834 10831 10830 10826 10825 10822 10815 10815 10809 10805 10806 10808 10807 10806 10804 10804 10802 10799 10797 10801
10727 10733 10741 10754 10770 10784 10793 10799 10797 10795 10790 10796 10799 10820 10822 10824 10827 10829 10826 10822 10823 10829 10830 10831 10830 10832 10823 10821 10819 10818 10814 10814 10812 10810 10807 10800 10794 10791 10792 10788 10785 10785 10786 10786 10783 10781 10779 10775 10775
10726 10731 10738 10751 10761 10768 10779 10786 10783 10777 10774 10787 10793 10806 10808 10811 10816 10816 10812 10808 10813 10815 10813 10812 10812 10812 10810 10806 10803 10798 10798 10796 10796 10793 10789 10785 10777 10771 10770 10765 10761 10761 10762 10760 10757 10756 10754 10752 10745
10723 10727 10732 10742 10752 10760 10764 10769 10772 10755 10770 10779 10778 10785 10792 10800 10805 10806 10800 10795 10796 10795 10796 10797 10795 10791 10786 10782 10783 10779 10775 10781 10777 10769 10766 10764 10756 10750 10744 10739 10737 10737 10735 10735 10732 10729 10727 10726 10723
10724 10725 10726 10729 10737 10747 10740 10754 10750 10766 10756 10756 10763 10775 10788 10791 10793 10791 10786 10782 10782 10782 10782 10777 10771 10765 10758 10755 10752 10753 10754 10755 10754 10749 10741 10736 10732 10727 10721 10715 10709 10706 10706 10705 10704 10701 10700 10699 10697
10720 10720 10720 10724 10729 10729 10734 10742 10750 10750 10743 10746 10753 10757 10764 10770 10775 10775 10775 10770 10769 10765 10760 10752 10741 10736 10730 10728 10729 10730 10732 10731 10727 10722 10719 10712 10705 10699 10698 10693 10685 10677 10672 10674 10675 10673 10671 10670 10669
10718 10719 10718 10719 10721 10719 10726 10731 10735 10738 10734 10733 10740 10746 10747 10753 10756 10760 10759 10755 10752 10746 10736 10726 10715 10706 10706 10705 10707 10704 10700 10699 10697 10696 10692 10686 10678 10675 10673 10668 10661 10652 10646 10640 10644 10645 10643 10640 10639
10714 10712 10712 10714 10713 10712 10715 10718 10720 10721 10725 10729 10728 10731 10731 10733 10736 10735 10733 10729 10725 10721 10714 10712 10706 10702 10692 10684 10678 10672 10669 10663 10660 10659 10658 10654 10648 10643 10640 10637 10631 10624 10618 10614 10614 10612 10608 10609 10610
10707 10705 10705 10705 10704 10703 10704 10705 10704 10712 10710 10715 10716 10715 10714 10712 10708 10705 10702 10698 10692 10691 10691 10692 10692 10688 10681 10676 10669 10661 10647 10639 10627 10616 10615 10615 10613 10611 10607 10601 10597 10594 10589 10585 10582 10579 10576 10576 10580
10700 10699 10699 10696 10693 10693 10694 10691 10698 10700 10703 10698 10696 10693 10687 10683 10681 10677 10671 10669 10669 10672 10670 10666 10660 10655 10652 10648 10644 10638 10631 10624 10617 10606 10588 10578 10577 10573 10567 10561 10557 10560 10559 10554 10551 10548 10544 10548 10551
10690 10692 10690 10689 10684 10678 10679 10684 10692 10689 10684 10675 10670 10666 10664 10659 10652 10648 10649 10647 10644 10641 10637 10634 10631 10626 10623 10620 10616 10607 10600 10594 10585 10579 10574 10566 10550 10536 10531 10527 10522 10518 10519 10521 10519 10511 10511 10516 10524
10680 10682 10681 10681 10680 10676 10666 10662 10666 10667 10662 10656 10653 10647 10640 10635 10632 10630 10626 10621 10615 10612 10607 10604 10601 10597 10594 10589 10581 10576 10571 10565 10556 10549 10543 10532 10523 10518 10509 10501 10490 10483 10480 10481 10482 10479 10482 10485 10490